Weather History for KEEO - December, 2012

Change the Weather History Date:

Sunday, December 9, 2012

  Actual Average Record
Temperature  
Mean Temperature 14 °F 22 °F  
Max Temperature 23 °F 35 °F 49 °F (2014)
Min Temperature 4 °F 10 °F -16 °F (2013)
Degree Days  
Heating Degree Days 51 43  
Month to date heating degree days 278 372  
Since 1 July heating degree days 1923 2308  
Cooling Degree Days 0 0  
Month to date cooling degree days 0 0  
Year to date cooling degree days 325 172  
Moisture  
Dew Point 2 °F    
Average Humidity 56    
Maximum Humidity 76    
Minimum Humidity 36    
Precipitation  
Precipitation T in 0.03 in 0.07 in (2000)
Month to date precipitation 0.09 0.34  
Year to date precipitation 7.90 15.29  
Sea Level Pressure  
Sea Level Pressure 30.24 in    
Wind  
Wind Speed 4 mph (NNE)    
Max Wind Speed 14 mph    
Max Gust Speed 20 mph    
Visibility 10 miles    
Events Snow    
T = Trace of Precipitation, MM = Missing Value Source: NWS Daily Summary

Daily Weather History Graph

Daily Weather History Graph

Search for Another Location

Airport or City:

Trip Planner

Search our weather history database for the weather conditions in past years. The results will help you decide how hot, cold, wet, or windy it might be!

Date:

Astronomy

Dec. 09, 2012 Rise Set
Actual Time 7:22 AM MST 4:46 PM MST
Civil Twilight 6:51 AM MST 5:16 PM MST
Nautical Twilight 6:17 AM MST 5:50 PM MST
Astronomical Twilight 5:44 AM MST 6:23 PM MST
Moon 2:58 AM MST (12/9) 1:54 PM MST (12/9)
Length of Visible Light 10h 24m
Length of Day
9h 23m
Waning Crescent, 18% of the Moon is Illuminated
Dec 9
Waning Crescent
Dec 13
New
Dec 19
First Quarter
Dec 28
Full
Jan 4
Last Quarter

Hourly Weather History & Observations

Time (MST) Temp. Windchill Dew Point Humidity Pressure Visibility Wind Dir Wind Speed Gust Speed Precip Events Conditions
12:53 AM 17.1 °F 11.7 °F 10.0 °F 74% 30.02 in 9.0 mi South 3.5 mph - 0.00 in Snow Light Snow
1:53 AM 17.1 °F 11.7 °F 10.9 °F 77% 30.04 in 10.0 mi NW 3.5 mph - N/A   Overcast
2:53 AM 18.0 °F 11.1 °F 1.0 °F 48% 30.04 in 10.0 mi North 4.6 mph - N/A   Overcast
3:53 AM 18.0 °F - 3.0 °F 52% 30.06 in 10.0 mi Calm Calm - N/A   Overcast
4:53 AM 16.0 °F 8.8 °F 7.0 °F 68% 30.10 in 10.0 mi NNE 4.6 mph - N/A   Overcast
5:53 AM 12.0 °F - 1.9 °F 64% 30.16 in 10.0 mi Calm Calm - N/A   Overcast
6:53 AM 12.0 °F - 6.1 °F 77% 30.19 in 10.0 mi Calm Calm - N/A   Overcast
7:53 AM 10.0 °F - 3.9 °F 76% 30.23 in 10.0 mi Calm Calm - N/A   Partly Cloudy
8:53 AM 12.9 °F - 5.0 °F 71% 30.25 in 10.0 mi Calm Calm - N/A   Clear
9:53 AM 19.0 °F 9.0 °F 6.1 °F 57% 30.25 in 10.0 mi ENE 8.1 mph - N/A   Partly Cloudy
10:53 AM 19.9 °F 10.1 °F 5.0 °F 52% 30.26 in 10.0 mi NE 8.1 mph - N/A   Partly Cloudy
11:53 AM 21.9 °F 11.0 °F 5.0 °F 48% 30.23 in 10.0 mi NNE 10.4 mph - N/A   Clear
12:53 PM 19.9 °F 12.1 °F -0.0 °F 42% 30.23 in 10.0 mi North 5.8 mph 17.3 mph N/A   Mostly Cloudy
1:53 PM 21.0 °F 16.2 °F -2.0 °F 36% 30.23 in 10.0 mi NNW 3.5 mph - N/A   Mostly Cloudy
2:53 PM 19.9 °F 7.9 °F -0.9 °F 40% 30.25 in 10.0 mi North 11.5 mph - N/A   Mostly Cloudy
3:53 PM 19.9 °F 7.9 °F -0.0 °F 42% 30.27 in 10.0 mi NNE 11.5 mph - N/A   Partly Cloudy
4:53 PM 17.1 °F - -0.9 °F 45% 30.30 in 10.0 mi Calm Calm - N/A   Partly Cloudy
5:53 PM 12.0 °F - -0.0 °F 59% 30.38 in 10.0 mi Calm Calm - N/A   Clear
6:53 PM 10.0 °F - 1.0 °F 67% 30.39 in 10.0 mi Calm Calm - N/A   Clear
7:53 PM 7.0 °F -3.3 °F -0.9 °F 70% 30.42 in 10.0 mi NE 5.8 mph - N/A   Clear
8:53 PM 8.1 °F 1.4 °F -0.9 °F 67% 30.39 in 10.0 mi SE 3.5 mph - N/A   Clear
9:53 PM 8.1 °F -2.0 °F -2.0 °F 64% 30.36 in 10.0 mi East 5.8 mph - N/A   Scattered Clouds
10:53 PM 7.0 °F -5.7 °F -0.9 °F 70% 30.36 in 10.0 mi NE 8.1 mph - N/A   Overcast
11:53 PM 6.1 °F -4.3 °F -2.0 °F 69% 30.38 in 10.0 mi NNE 5.8 mph - N/A   Mostly Cloudy